Southport, FL

3:40 PM CST on February 12, 2016 (GMT -0600)
Northwest Florida Beaches International

Weather History for KECP - February, 2013

Change the Weather History Date:

Sunday, February 10, 2013

  Actual Average Record
Temperature  
Mean Temperature 60 °F -  
Max Temperature 73 °F - 73 °F (2013)
Min Temperature 47 °F - 29 °F (2016)
Degree Days  
Heating Degree Days 5    
Cooling Degree Days 0    
Growing Degree Days 9 (Base 50)    
Moisture  
Dew Point 55 °F    
Average Humidity 80    
Maximum Humidity 93    
Minimum Humidity 66    
Precipitation  
Precipitation 0.00 in - 0.00 in (2016)
Month to date precipitation  
Year to date precipitation  
Sea Level Pressure  
Sea Level Pressure 30.17 in    
Wind  
Wind Speed 8 mph (ESE)    
Max Wind Speed 26 mph    
Max Gust Speed 33 mph    
Visibility 10 miles    
Events      
T = Trace of Precipitation, MM = Missing Value Source: NWS Daily Summary

Daily Weather History Graph

Daily Weather History Graph

Search for Another Location

Airport or City:

Trip Planner

Search our weather history database for the weather conditions in past years. The results will help you decide how hot, cold, wet, or windy it might be!

Date:

Astronomy

Feb. 10, 2013 Rise Set
Actual Time 7:27 AM EST 6:27 PM EST
Civil Twilight 7:02 AM EST 6:52 PM EST
Nautical Twilight 6:34 AM EST 7:20 PM EST
Astronomical Twilight 6:06 AM EST 7:48 PM EST
Moon 7:22 AM EST (2/10) 7:10 PM EST (2/10)
Length of Visible Light 11h 49m
Length of Day
11h 00m
New Moon, 0% of the Moon is Illuminated
Feb 10
New Moon
Feb 17
First Quarter
Feb 25
Full
Mar 4
Last Quarter
Mar 11
New

Hourly Weather History & Observations

Time (EST) Temp. Dew Point Humidity Pressure Visibility Wind Dir Wind Speed Gust Speed Precip Events Conditions
12:53 AM 46.9 °F 45.0 °F 93% 30.20 in 8.0 mi Calm Calm - N/A   Clear
1:53 AM 48.9 °F 45.0 °F 86% 30.20 in 10.0 mi East 4.6 mph - N/A   Clear
2:53 AM 48.0 °F 44.1 °F 86% 30.20 in 10.0 mi ENE 3.5 mph - N/A   Clear
3:53 AM 48.9 °F 45.0 °F 86% 30.19 in 10.0 mi ENE 5.8 mph - N/A   Clear
4:53 AM 48.9 °F 46.0 °F 90% 30.19 in 10.0 mi East 4.6 mph - N/A   Clear
5:53 AM 48.0 °F 45.0 °F 89% 30.21 in 10.0 mi NNE 3.5 mph - N/A   Clear
6:53 AM 48.9 °F 45.0 °F 86% 30.21 in 10.0 mi ENE 5.8 mph - N/A   Clear
7:53 AM 48.9 °F 45.0 °F 86% 30.22 in 10.0 mi East 5.8 mph - N/A   Scattered Clouds
8:53 AM 52.0 °F 48.0 °F 86% 30.21 in 10.0 mi East 8.1 mph - N/A   Mostly Cloudy
9:53 AM 59.0 °F 53.1 °F 81% 30.23 in 10.0 mi East 8.1 mph 20.7 mph N/A   Mostly Cloudy
10:53 AM 64.9 °F 55.0 °F 70% 30.23 in 10.0 mi East 15.0 mph - N/A   Scattered Clouds
11:53 AM 69.1 °F 57.9 °F 68% 30.22 in 10.0 mi ESE 16.1 mph 24.2 mph N/A   Overcast
12:53 PM 71.1 °F 59.0 °F 66% 30.19 in 10.0 mi ESE 20.7 mph 26.5 mph N/A   Mostly Cloudy
1:53 PM 72.0 °F 60.1 °F 66% 30.16 in 10.0 mi SE 18.4 mph 33.4 mph N/A   Mostly Cloudy
2:53 PM 71.1 °F 61.0 °F 70% 30.14 in 10.0 mi SE 20.7 mph 31.1 mph N/A   Overcast
3:53 PM 71.1 °F 61.0 °F 70% 30.11 in 10.0 mi SE 19.6 mph 27.6 mph N/A   Overcast
4:53 PM 70.0 °F 61.0 °F 73% 30.12 in 10.0 mi ESE 18.4 mph 27.6 mph N/A   Overcast
5:53 PM 69.1 °F 61.0 °F 75% 30.12 in 10.0 mi SE 13.8 mph 23.0 mph N/A   Overcast
6:53 PM 68.0 °F 61.0 °F 78% 30.12 in 10.0 mi SE 15.0 mph 25.3 mph N/A   Overcast
7:53 PM 68.0 °F 62.1 °F 81% 30.12 in 10.0 mi SE 16.1 mph 26.5 mph N/A   Mostly Cloudy
8:53 PM 66.9 °F 63.0 °F 87% 30.12 in 10.0 mi SE 16.1 mph 25.3 mph N/A   Clear
9:06 PM 66.2 °F 62.6 °F 88% 30.08 in 10.0 mi SSE 17.3 mph 23.0 mph N/A   Mostly Cloudy
9:53 PM 66.0 °F 64.0 °F 93% 30.12 in 9.0 mi SE 12.7 mph 20.7 mph N/A   Overcast
10:53 PM 68.0 °F 64.0 °F 87% 30.12 in 9.0 mi SE 12.7 mph 20.7 mph N/A   Overcast
11:53 PM 69.1 °F 64.9 °F 87% 30.11 in 9.0 mi SSE 11.5 mph - N/A   Overcast